Back to catalog

SKYSAT C9

AliveScienceSSO
NORAD 42989·PAYLOAD·🇺🇸 United States

Launched Oct 31, 2017 from Vandenberg Space Force Base

Loading…

Next Passes (next 24 hours)

TLE

FreshSource: CelesTrak SupGP

Epoch: Sep 14, 2026, 14:49 UTC

1 42989C 17068C   26257.61777778  .00011995  00000+0  26788-3 0  2571
2 42989  97.4551  37.3237 0008234 165.0599 131.9280 15.43525763    18

Track SKYSAT C9 in real time with AllMySat

Download on the App Store